Meteo Giornale » Osservazioni meteo Italia » Bari-Palese Macchie

ore: 17:20 - Osservazioni Meteo Bari-Palese Macchie
Lat. 41° 8' N Lon. 16° 47' E Alt. 34 metri s.l.m.

coperto_pioggia Europe/Rome

26 °C

Pioggia Debole

Temp. 24 Ore

19 °C

29 °C

Est/Nord-Est

9.3 Km/h

Dew point 18 °C

Umidità 61 %

Visibilità  10 Km

Il sole sorge alle ore 06:40

Il sole tramonta alle ore 18:49

Data e Ora Cielo e Fenomeni T °C DP °C Um. % Pres. hPa Vis. km Vento km/h
Oggi h: 17:20 coperto_pioggia Pioggia Debole 26 18 61 1010 10 E/NE 9.3
Oggi h: 16:50 nuvoloso Nuvoloso 27 18 57 1010 10 E 18.5
Oggi h: 16:20 poco_nuvoloso Poco Nuvoloso 27 18 57 1010 10 E 24
Oggi h: 15:50 poco_nuvoloso Poco Nuvoloso 27 20 65 1010 10 E 25.9
Oggi h: 15:20 poco_nuvoloso Poco Nuvoloso 27 18 57 1010 10 E 25.9
Oggi h: 14:50 sereno Sereno 29 18 51 1011 10 E/NE 20.3
Oggi h: 14:20 sereno Sereno 27 16 50 1011 10 E/NE 25.9
Oggi h: 13:50 poco_nuvoloso Poco Nuvoloso 28 16 48 1011 10 E/NE 29.6
Oggi h: 13:20 poco_nuvoloso Poco Nuvoloso 29 16 45 1012 10 E 22.2
Oggi h: 12:50 poco_nuvoloso Poco Nuvoloso 27 18 57 1012 10 E/NE 18.5
Oggi h: 12:20 sereno Sereno 28 16 48 1012 10 E/NE 18.5
Oggi h: 11:50 sereno Sereno 28 17 51 1013 10 E/NE 14.8
Oggi h: 11:20 sereno Sereno 28 15 45 1013 10 N 7.4
Oggi h: 10:50 sereno Sereno 27 15 47 1013 10 O/NO 7.4
Oggi h: 10:20 sereno Sereno 27 15 47 1013 10 O/SO 11.1
Oggi h: 09:20 sereno Sereno 25 16 57 1013 10 O 9.3
Oggi h: 08:50 sereno Sereno 23 17 68 1012 10 N 5.5
Oggi h: 08:20 sereno Sereno 22 16 68 1013 10 SO 9.3
Oggi h: 07:50 sereno Sereno 20 16 77 1013 10 SO 7.4
Oggi h: 07:20 sereno Sereno 19 15 77 1013 10 SO 11.1
Oggi h: 06:50 sereno Sereno 19 15 77 1013 10 S/SO 11.1
Oggi h: 03:50 sereno Sereno 20 15 72 1012 10 S 13
Oggi h: 03:20 sereno Sereno 20 15 72 1013 10 SO 13
Oggi h: 02:50 sereno Sereno 21 15 68 1013 10 S/SO 16.7
Oggi h: 02:20 sereno Sereno 22 16 68 1013 10 O/SO 16.7
Oggi h: 01:50 sereno Sereno 22 16 68 1013 10 SO 16.7
Oggi h: 01:20 sereno Sereno 22 18 78 1013 10 O/SO 14.8
Oggi h: 00:50 sereno Sereno 22 19 83 1013 10 SO 14.8
Oggi h: 00:20 sereno Sereno 22 19 83 1013 10 SO 16.7
Ieri h: 23:50 sereno Sereno 22 19 83 1013 10 SO 14.8
Ieri h: 23:20 sereno Sereno 22 19 83 1013 10 SO 16.7
Ieri h: 22:50 sereno Sereno 21 17 77 1013 10 SO 14.8
Ieri h: 22:20 sereno Sereno 21 17 77 1013 10 S/SO 14.8
Ieri h: 21:50 sereno Sereno 21 17 77 1014 10 S/SO 14.8
Ieri h: 21:20 poco_nuvoloso Poco Nuvoloso 20 17 82 1014 10 SO 13
Ieri h: 20:50 poco_nuvoloso Poco Nuvoloso 20 17 82 1013 10 S/SO 14.8
Ieri h: 20:20 poco_nuvoloso Poco Nuvoloso 21 17 77 1014 10 S/SO 18.5
Ieri h: 19:50 poco_nuvoloso Poco Nuvoloso 21 17 77 1014 10 S 11.1
Ieri h: 19:20 nuvoloso Nuvoloso 22 17 73 1014 10 S/SO 13
Ieri h: 18:50 poco_nuvoloso Poco Nuvoloso 22 17 73 1014 10 S/SO 20.3